Location: Fernhill
(41.0167°S, 175.6333°E)
Time: 10:20:55
(UTC+00:00)

Feng Yun 1-1 Rocket - Pass Details

Date: 08 November 2025
Orbit: 828 x 933 km, 99.0° (Epoch: 12 December)

Event Time Altitude Azimuth Distance (km) Brightness Sun altitude
Rises 09:09:59 0° 164° (SSE) 3,545 7.9 -20.0°
Reaches altitude 10° 09:12:24 10° 161° (SSE) 2,612 7.1 -20.3°
Maximum altitude 09:18:14 69° 78° (ENE) 989 4.3 -21.0°
Enters shadow 09:21:00 33° 3° (N) 1,516 5.1 -21.4°
